This demonstration page uses our WeatherBlox Daily Observations layout. Learn more.

Left ArrowRight Arrow

39.51506, -84.39828

Hourly Observations for June 21, 2021

Temp ( °F °C ) Dew Point ( °F °C ) Humidity (%) Winds ( mph kmh ) Pressure ( in mb ) Visibility ( mi km ) Precip ( " mm )
12:15 am 00:15 Clear 79 25.9 72 22.2 80 80 SSW 9 15 29.67 1005 10 16 N/A
12:35 am 00:35 Clear 78 25.8 72 22.2 81 81 SSW 9 15 29.67 1005 10 16 N/A
12:55 am 00:55 Clear 78 25.5 72 22.2 82 82 SSW 10 17 29.65 1004 10 16 N/A
1:15 am 01:15 Clear 78 25.4 72 22.1 82 82 SSW 12 19 29.65 1004 10 16 N/A
1:35 am 01:35 Clear 78 25.4 72 22.1 82 82 SSW 13 20 29.65 1004 10 16 N/A
1:55 am 01:55 Mostly Cloudy 78 25.6 72 22.1 81 81 SSW 9 15 29.65 1004 10 16 N/A
2:15 am 02:15 Mostly Cloudy 78 25.8 71 21.9 79 79 SW 12 19 29.65 1004 10 16 N/A
2:35 am 02:35 Mostly Cloudy 78 25.7 71 21.8 79 79 SW 10 17 29.65 1004 10 16 N/A
2:55 am 02:55 Mostly Cloudy 78 25.7 71 21.7 79 79 SW 14 22 29.66 1004 10 16 N/A
3:15 am 03:15 Mostly Cloudy 78 25.7 71 21.9 80 80 SW 13 20 29.65 1004 10 16 N/A
3:35 am 03:35 Partly Cloudy 78 25.8 71 21.8 79 79 SSW 15 24 29.64 1004 10 16 N/A
3:55 am 03:55 Mostly Cloudy 78 25.7 71 21.9 80 80 SW 14 22 29.63 1003 10 16 N/A
4:15 am 04:15 Clear 78 25.4 72 22 82 82 SSW 12 19 29.62 1003 10 16 N/A
4:35 am 04:35 Clear 78 25.3 72 22.1 83 83 SW 15 24 29.63 1003 10 16 N/A
4:55 am 04:55 Clear 77 25 72 22.1 84 84 SW 14 22 29.64 1004 10 16 N/A
5:15 am 05:15 Clear 77 25.1 72 22.2 84 84 SSW 13 20 29.64 1004 10 16 N/A
5:35 am 05:35 Partly Cloudy 77 25.1 72 22.3 85 85 SSW 12 19 29.63 1003 10 16 N/A
5:55 am 05:55 Clear 77 24.8 72 22.3 86 86 SSW 13 20 29.63 1004 10 16 N/A
6:15 am 06:15 Sunny 77 25 72 22.2 85 85 SSW 15 24 29.63 1003 10 16 N/A
6:35 am 06:35 Sunny 77 25 72 22.3 85 85 SSW 13 20 29.63 1003 10 16 N/A
6:55 am 06:55 Sunny 77 25 72 22.4 86 86 SW 12 19 29.63 1003 10 16 N/A
7:15 am 07:15 Partly Cloudy 77 25 73 22.5 86 86 SW 13 20 29.63 1003 10 16 N/A
7:35 am 07:35 Sunny 77 25.2 73 22.6 86 86 SW 10 17 29.63 1003 10 16 N/A
7:55 am 07:55 Sunny 77 25.2 73 22.7 86 86 SW 15 24 29.63 1003 10 16 N/A
8:15 am 08:15 Sunny 78 25.3 73 22.8 86 86 SW 14 22 29.63 1003 10 16 N/A
8:35 am 08:35 Sunny 78 25.8 73 22.8 84 84 SW 15 24 29.63 1003 10 16 N/A
8:55 am 08:55 Sunny 79 26.3 74 23.1 83 83 SW 13 20 29.64 1004 10 16 N/A
9:15 am 09:15 Partly Cloudy 80 26.6 74 23.2 82 82 SW 16 26 29.65 1004 10 16 N/A
9:35 am 09:35 Partly Cloudy 81 27.2 74 23.3 79 79 SW 20 31 29.66 1004 10 16 N/A
9:55 am 09:55 Mostly Cloudy 80 26.9 74 23.3 81 81 SW 18 30 29.66 1004 10 16 N/A
10:15 am 10:15 Mostly Cloudy 82 27.5 74 23.3 78 78 WSW 15 24 29.66 1004 10 16 N/A
10:35 am 10:35 Partly Cloudy 83 28.1 73 22.8 73 73 SW 16 26 29.65 1004 10 16 N/A
10:55 am 10:55 Hazy 84 28.9 72 22 66 66 SW 20 31 29.65 1004 7 11 N/A
11:15 am 11:15 Mostly Cloudy 84 28.7 71 21.4 65 65 SW 16 26 29.66 1004 10 16 N/A
11:35 am 11:35 Cloudy 82 27.8 70 21.3 68 68 WSW 16 26 29.67 1005 10 16 N/A
11:55 am 11:55 Cloudy 83 28.1 71 21.6 68 68 WSW 16 26 29.67 1005 10 16 N/A
12:15 pm 12:15 Cloudy 82 27.6 69 20.5 65 65 WSW 20 31 29.68 1005 10 16 N/A
12:35 pm 12:35 Cloudy 80 26.8 69 20.8 70 70 W 14 22 29.68 1005 10 16 N/A
12:55 pm 12:55 Cloudy 79 26.2 72 22.1 78 78 WNW 12 19 29.68 1005 10 16 N/A
1:15 pm 13:15 Cloudy 78 25.6 71 21.9 80 80 WNW 13 20 29.67 1005 10 16 N/A
1:35 pm 13:35 Mostly Cloudy 78 25.8 71 21.7 78 78 W 13 20 29.66 1004 10 16 N/A
1:55 pm 13:55 Cloudy 78 25.7 73 22.5 83 83 W 13 20 29.66 1004 10 16 N/A
2:15 pm 14:15 Mostly Cloudy 79 26 71 21.5 76 76 NW 14 22 29.66 1004 10 16 N/A
2:35 pm 14:35 Cloudy 78 25.7 70 21.1 76 76 WNW 13 20 29.65 1004 10 16 N/A
2:55 pm 14:55 Cloudy 79 26.1 71 21.6 76 76 WNW 9 15 29.66 1004 10 16 N/A
3:15 pm 15:15 Mostly Cloudy 78 25.3 69 20.8 76 76 W 13 20 29.67 1005 10 16 N/A
3:35 pm 15:35 Mostly Cloudy 77 25.1 69 20.3 75 75 W 13 20 29.68 1005 10 16 N/A
3:55 pm 15:55 Mostly Cloudy 78 25.5 67 19.3 69 69 W 14 22 29.69 1005 10 16 N/A
4:15 pm 16:15 Cloudy 77 25 68 20.1 74 74 WNW 10 17 29.68 1005 10 16 N/A
4:35 pm 16:35 Cloudy 76 24.6 66 19.1 72 72 W 12 19 29.70 1006 10 16 N/A
4:55 pm 16:55 Mostly Cloudy 77 24.9 66 18.8 69 69 WNW 10 17 29.70 1006 10 16 N/A
5:15 pm 17:15 Cloudy 76 24.3 65 18.4 70 70 WNW 7 11 29.70 1006 10 16 N/A
5:35 pm 17:35 Cloudy 75 23.7 64 18 71 71 WNW 14 22 29.72 1006 10 16 N/A
5:55 pm 17:55 Cloudy 74 23.2 64 17.7 71 71 WNW 13 20 29.75 1007 10 16 N/A
6:15 pm 18:15 Cloudy with Light Rain 72 22.2 65 18.2 78 78 NW 12 19 29.76 1008 10 16 N/A
6:35 pm 18:35 Cloudy 71 21.7 64 17.6 78 78 NW 10 17 29.76 1008 10 16 N/A
6:55 pm 18:55 Cloudy with Haze 71 21.4 62 16.9 76 76 NW 10 17 29.76 1008 5 8 N/A
7:15 pm 19:15 Cloudy 70 21 62 16.5 76 76 NW 10 17 29.75 1008 7 11 N/A
7:35 pm 19:35 Cloudy with Haze 70 21 61 16 73 73 NW 9 15 29.74 1007 3 5 N/A
7:55 pm 19:55 Cloudy 69 20.7 61 15.9 74 74 N 8 13 29.73 1007 10 16 N/A
8:15 pm 20:15 Cloudy 69 20.5 60 15.8 75 75 N 8 13 29.74 1007 10 16 N/A
8:35 pm 20:35 Cloudy 68 20.2 61 15.9 76 76 NNW 7 11 29.77 1008 10 16 N/A
8:55 pm 20:55 Cloudy with Light Rain 68 19.8 62 16.4 81 81 NW 5 7 29.81 1009 10 16 N/A
9:15 pm 21:15 Cloudy with Light Rain 66 19 63 17 88 88 NNW 6 9 29.82 1010 10 16 N/A
9:35 pm 21:35 Cloudy with Light Rain 65 18.5 63 17.4 93 93 N 3 6 29.82 1010 10 16 0.01 0.25
9:55 pm 21:55 Mostly Cloudy with Light Rain 65 18.2 64 17.9 98 98 N N/A 29.83 1010 10 16 0.01 0.25
10:15 pm 22:15 Partly Cloudy with Light Rain 64 18 64 18 100 100 SSW 3 6 29.85 1011 10 16 0.01 0.25
10:35 pm 22:35 Cloudy with Light Rain 65 18.4 65 18.2 99 99 N N/A 29.84 1010 10 16 0.01 0.25
10:55 pm 22:55 Cloudy with Light Rain 64 18 N/A N/A N N/A 29.85 1011 10 16 0.01 0.25
11:15 pm 23:15 Mostly Cloudy 64 18 N/A N/A N N/A 29.85 1011 10 16 N/A
11:35 pm 23:35 Cloudy 64 18 N/A N/A SW 3 6 29.87 1011 10 16 N/A
11:55 pm 23:55 Cloudy 64 18 N/A N/A N N/A 29.88 1012 10 16 N/A

Powered by AerisWeather